Ellensburg, WA
on Monday, January 14, 2013

Monday
Previous Day Next Day
Daily Summary
 ActualAverage (KYKM)Record (KYKM)
Temperature
Mean Temperature °F 31°F  
Max Temperature 39°F 38°F 62°F (2011)
Min Temperature 17°F 23°F -19°F (1950)
Degree Days
Heating Degree Days 37 34  
Month to date heating degree days 500  
Since 1 July heating degree days 3163  
Cooling Degree Days 0 0  
Month to date cooling degree days 0  
Year to date cooling degree days 0  
Moisture
Dew Point 19°F   
Average Humidity 68    
Maximum Humidity 78    
Minimum Humidity 54    
Precipitation
Precipitation 0.00 in 0.03 in 0.70 in (1956)
Month to date precipitation 0.58  
Year to date precipitation 0.58  
Snow
Snow 0.00 in 0.20 in 7.70 in (1956)
Month to date snowfall 3.1  
Year to date snowfall 3.1  
Since 1 July snowfall 16.1  
Snow Depth in   
Wind
Wind Speed 6 mph   
Max Wind Speed 30 mph   
Max Gust Speed 40 mph   
Visibility 9 miles   
Events     

Key: T is trace of precipitation, MM is missing value
Source: NWS Daily Summary
Time(PST)TemperatureDew PointHumidity Pressure Visibility Wind DirectionWind SpeedGust SpeedPrecipitationEvents Conditions
12:53 AM 17.1°F 10.9°F 77% 30.44 in 7.0 miles Calm Calm - N/A   Overcast
1:53 AM 18.0°F 12.0°F 78% 30.45 in 8.0 miles SW 3.5 mph - N/A   Overcast
2:53 AM 18.0°F 12.0°F 78% 30.45 in 7.0 miles Calm Calm - N/A   Overcast
3:53 AM 19.0°F 12.0°F 74% 30.43 in 8.0 miles Calm Calm - N/A   Overcast
4:53 AM 19.9°F 12.9°F 74% 30.39 in 8.0 miles Calm Calm - N/A   Overcast
5:53 AM 19.9°F 12.9°F 74% 30.39 in 8.0 miles Calm Calm - N/A   Overcast
6:53 AM 19.0°F 12.9°F 77% 30.39 in 7.0 miles Variable 5.8 mph - N/A   Mostly Cloudy
7:53 AM 21.0°F 14.0°F 74% 30.38 in 8.0 miles ESE 3.5 mph - N/A   Overcast
8:53 AM 21.9°F 15.1°F 75% 30.38 in 6.0 miles Calm Calm - N/A   Haze
9:53 AM 25.0°F 16.0°F 69% 30.35 in 10.0 miles ESE 3.5 mph - N/A   Scattered Clouds
10:53 AM 28.9°F 18.0°F 64% 30.33 in 10.0 miles South 5.8 mph - N/A   Clear
11:53 AM 37.0°F 21.9°F 54% 30.30 in 10.0 miles West 8.1 mph - N/A   Clear
12:21 PM 39.2°F 26.6°F 61% 30.22 in 10.0 miles WNW 23.0 mph 32.2 mph N/A   Clear
12:53 PM 39.9°F 26.1°F 58% 30.28 in 10.0 miles WNW 27.6 mph 34.5 mph N/A   Clear
2:53 PM 39.9°F 26.1°F 58% 30.31 in 10.0 miles NW 29.9 mph 40.3 mph N/A   Clear
3:53 PM 39.0°F 26.1°F 60% 30.34 in 10.0 miles NW 24.2 mph 32.2 mph N/A   Clear
4:53 PM 37.9°F 26.1°F 62% 30.35 in 10.0 miles NW 25.3 mph 34.5 mph N/A   Clear
5:53 PM 37.9°F 26.1°F 62% 30.38 in 10.0 miles NW 21.9 mph - N/A   Clear
6:53 PM 35.1°F 23.0°F 61% 30.40 in 10.0 miles Variable 3.5 mph - N/A   Clear
7:53 PM 30.0°F 21.0°F 69% 30.41 in 10.0 miles SE 5.8 mph - N/A   Clear
8:53 PM 32.0°F 19.9°F 61% 30.43 in 10.0 miles SSE 5.8 mph - N/A   Clear
9:53 PM 28.0°F 19.0°F 69% 30.44 in 10.0 miles ESE 4.6 mph - N/A   Clear
10:53 PM 28.9°F 19.0°F 67% 30.45 in 10.0 miles SSE 4.6 mph - N/A   Clear
11:53 PM 27.0°F 18.0°F 69% 30.45 in 10.0 miles Calm Calm - N/A   Clear
Moon Phase
Jan. 14 Jan. 18 Jan. 26 Feb. 03 Feb. 10
Sunrise:07:43 AM (PST) Moon Rise:09:04 AM (PST)1/14
Sunset:04:39 PM (PST) Moon Set:08:48 PM (PST)1/14

Copyright © 2014 The Weather Underground, Inc.